Regional Weather Roundup
Issued by NWS

Home | Current Version | Previous Version | Text Only | Print | Product List | Glossary On
Versions: 1 2 3 4 5 6 7 8 9 10 11 12 13 14 15 16 17 18 19 20 21 22 23 24 25 26 27 28 29 30 31 32 33 34 35 36 37 38 39 40 41 42 43 44 45 46 47 48 49 50
000
ASUS43 KLOT 191908
RWRIL

ILLINOIS REGIONAL WEATHER ROUNDUP
NATIONAL WEATHER SERVICE CHICAGO/ROMEOVILLE IL
200 PM CDT SUN APR 19 2015

NOTE: "FAIR" INDICATES FEW OR NO CLOUDS BELOW 12,000 FEET WITH NO
SIGNIFICANT WEATHER AND/OR OBSTRUCTIONS TO VISIBILITY.

* THESE STATIONS ARE NOT UNDER NWS QUALITY CONTROL. THEY ALSO MAY NOT
  REPORT WEATHER SUCH AS PRECIPITATION OR FOG.

ILZ001-002-007-009-015-016-024-192000-
NORTHWEST ILLINOIS

CITY           SKY/WX    TMP DP  RH WIND       PRES   REMARKS
MOLINE         MOSUNNY   78  48  34 E12       29.54F
STERLING*      PTSUNNY   72  45  37 SE13G18   29.59F
SAVANNA*       MOSUNNY   77  42  28 E9        29.57F
$$

ILZ003-004-008-010-011-017-018-192000-
NORTH CENTRAL ILLINOIS

CITY           SKY/WX    TMP DP  RH WIND       PRES   REMARKS
ROCKFORD       CLOUDY    73  42  32 SE16G23   29.61F
FREEPORT*      CLOUDY    73  44  34 E13       29.60F
ROCHELLE*      CLOUDY    69  42  37 SE15      29.61F
DE KALB*       CLOUDY    68  43  39 SE8       29.62F
PERU*          RAIN      60  51  72 SE8       29.62F
$$

ILZ005-006-012>014-019>023-192000-
NORTHEAST ILLINOIS

CITY           SKY/WX    TMP DP  RH WIND       PRES   REMARKS
CHICAGO-OHARE  PTSUNNY   67  38  34 E13       29.63F
CHICAGO-MIDWAY CLOUDY    66  41  40 E10       29.62F
AURORA         CLOUDY    71  42  35 SE15      29.61F
LANSING*       CLOUDY    66  40  37 SE9G17    29.63F
JOLIET*        CLOUDY    69  46  43 SE10G17   29.61F
WAUKEGAN       MOSUNNY   58  34  40 NE13G22   29.66F
DUPAGE AIRPORT CLOUDY    69  42  37 E12       29.61F
KANKAKEE*      DRIZZLE   60  51  72 E9        29.62F
WHEELING       PTSUNNY   59  36  42 NE9       29.66F
MORRIS*        RAIN      64  48  55 S12       29.61F
ROMEOVILLE*    CLOUDY    69  43  37 SE15      29.61F
NORTHERLY ISL    N/A     53  39  59 N8          N/A
$$

LMZ740>746-192000-
SOUTHERN LAKE MICHIGAN

STATION/POSITION SKY/WX   TEMP    WIND        PRES    VSBY  WAVE
                          AIR SEA DIR/SP/G                  HT/PER
                          (F)     (DEG/KT/KT) (MB)    (MI)  (FT/S)
HARRISON CRIB              46     350/  9/ 10   N/A
BURNHAM HARBOR             53     360/  6/  9   N/A
CALUMET HARBOR             54     340/  8/ 12   N/A
BURNS HARBOR               69     130/ 10/ 23 1005.1F
MICHIGAN CITY              68      80/ 15/ 21   N/A
MICHIGAN CITY 6N           55 44  140/  8/ 12   N/A           2/ 5
$$

ILZ025>027-034>036-040-047-049-050-058-095>099-192000-
WEST-CENTRAL ILLINOIS

CITY           SKY/WX    TMP DP  RH WIND       PRES   REMARKS
QUINCY         CLOUDY    67  54  63 W8        29.55F
GALESBURG*     LGT RAIN  65  51  62 SE10      29.58F
MACOMB*        CLOUDY    64  53  67 E16       29.59F
JACKSONVILLE*  RAIN      61  58  91 N7        29.55F
PITTSFIELD*    LGT RAIN  62  57  84 NE8       29.57F
$$

ILZ028>032-037-038-041>044-048-051>054-059>061-192000-
CENTRAL ILLINOIS

CITY           SKY/WX    TMP DP  RH WIND       PRES   REMARKS
PONTIAC        LGT RAIN  58  55  87 E12       29.62F
BLOOMINGTON    LGT RAIN  58  56  93 NE12      29.59F FOG
DECATUR        LGT RAIN  59  58  96 NE14      29.54F FOG
PEORIA         LGT RAIN  63  53  70 E5        29.58F
LACON*         DRIZZLE   59  52  77 E10       29.60F
LINCOLN*       RAIN      60  57  89 NE9       29.55F
SPRINGFIELD    LGT RAIN  61  57  87 NE10      29.55F FOG
TAYLORVILLE    CLOUDY    57  55  94 NE6       29.54F FOG
$$

ILZ033-039-045-046-055>057-062-063-192000-
EAST-CENTRAL ILLINOIS

CITY           SKY/WX    TMP DP  RH WIND       PRES   REMARKS
CHAMPAIGN      RAIN      56  55  97 NE14      29.56F FOG
DANVILLE*      RAIN      54  52  95 E9        29.56F
RANTOUL*       RAIN      56  54  91 NE14      29.56F
MATTOON        LGT RAIN  59  59 100 E5        29.52F FOG
PARIS*         HVY RAIN  57  57  98 E9        29.55F
$$

ILZ079-100>102-192000-
SOUTHWEST ILLINOIS

CITY           SKY/WX    TMP DP  RH WIND       PRES   REMARKS
BELLEVILLE     LGT RAIN  61  61 100 NW5       29.53F FOG
CAHOKIA*       LGT RAIN  65  61  87 N6        29.54F
SPARTA*        RAIN      60  59  97 NW3       29.55F
$$

ILZ064>066-069>071-074>076-080>082-084>086-088>090-092>094-192000-
SOUTH-CENTRAL ILLINOIS

CITY           SKY/WX    TMP DP  RH WIND       PRES   REMARKS
CARBONDALE     CLOUDY    67  63  87 N6        29.51F
CAIRO*         CLOUDY    68  65  90 S10       29.52F
EFFINGHAM*     LGT RAIN  60  57  91 E5        29.53F
MARION         LGT RAIN  68  64  88 SE6       29.52F
MT. VERNON     CLOUDY    63  57  82 CALM      29.53F
CENTRALIA*     CLOUDY    62  57  86 NW3       29.51F
SALEM*         RAIN      62  58  88 CALM      29.53F
METROPOLIS*    LGT RAIN  70  69  98 SW6       29.52F
$$

ILZ067-068-072-073-078-083-087-091-192000-
SOUTHEAST ILLINOIS

CITY           SKY/WX    TMP DP  RH WIND       PRES   REMARKS
LAWRENCEVILLE  CLOUDY    62  62 100 E6        29.53F
FLORA*         DRIZZLE   62  61  98 SE7       29.52F
FAIRFIELD*     CLOUDY    63  63  99 S6        29.50F FOG
HARRISBURG*    RAIN      66  65  99 SW3       29.53F
ROBINSON*      LGT RAIN  60  60  99 E3        29.56F
CARMI*         RAIN      65  60  84 S7        29.51F
$$

ABBREVIATIONS USED IN REMARKS
   TC - TEMPERATURE IN CELSIUS
  WCI - WIND CHILL INDEX
   HX - HEAT INDEX
  VSB - VISIBILITY
$$




USA.gov is the U.S. government's official web portal to all federal, state and local government web resources and services.